Logan, UT

3:33 AM MST on December 14, 2019 (GMT -0700)
Logan-Cache

Weather History for KLGU - October, 2019

Change the Weather History Date:

Friday, October 25, 2019

  Actual Average Record
Temperature  
Mean Temperature 40 °F -  
Max Temperature 57 °F 59 °F 77 °F (2014)
Min Temperature 24 °F 31 °F 15 °F (2001)
Degree Days  
Heating Degree Days 24    
Moisture  
Dew Point 24 °F    
Average Humidity 61    
Maximum Humidity 89    
Minimum Humidity 25    
Precipitation  
Precipitation 0.00 in - - ()
Sea Level Pressure  
Sea Level Pressure 30.37 in    
Wind  
Wind Speed 2 mph ()    
Max Wind Speed 9 mph    
Max Gust Speed -    
Visibility 10.0 miles    
Events      
Averages and records for this station are not official NWS values.
T = Trace of Precipitation, MM = Missing Value Source: Averaged Metar Reports

Daily Weather History Graph

Daily Weather History Graph

Search for Another Location

Airport or City:

Astronomy

Oct. 25, 2019 Rise Set
Actual Time 7:51 AM MDT 6:31 PM MDT
Civil Twilight 7:22 AM MDT 6:59 PM MDT
Nautical Twilight 6:49 AM MDT 7:32 PM MDT
Astronomical Twilight 6:17 AM MDT 8:04 PM MDT
Moon 4:34 AM MDT (10/25) 5:38 PM MDT (10/25)
Length of Visible Light 11h 37m
Length of Day
10h 40m
Waning Crescent, 8% of the Moon is Illuminated
Oct 25
Waning Crescent
Oct 27
New
Nov 4
First Quarter
Nov 12
Full
Nov 19
Last Quarter

Hourly Weather History & Observations

Time (MDT) Temp. Windchill Dew Point Humidity Pressure Visibility Wind Dir Wind Speed Gust Speed Precip Events Conditions
12:51 AM 33.1 °F - 24.1 °F 70% 30.50 in 10.0 mi Calm Calm - N/A   Clear
1:51 AM 30.9 °F - 23.0 °F 72% 30.50 in 10.0 mi Calm Calm - N/A   Clear
2:51 AM 28.9 °F - 23.0 °F 78% 30.51 in 10.0 mi Calm Calm - N/A   Clear
3:51 AM 28.9 °F - 21.9 °F 75% 30.50 in 10.0 mi Calm Calm - N/A   Clear
4:51 AM 28.9 °F - 23.0 °F 78% 30.48 in 10.0 mi Calm Calm - N/A   Clear
5:51 AM 25.0 °F 20.7 °F 21.0 °F 85% 30.49 in 10.0 mi NNE 3.5 mph - N/A   Clear
6:51 AM 27.0 °F - 23.0 °F 85% 30.51 in 10.0 mi Calm Calm - N/A   Clear
7:51 AM 24.1 °F - 21.0 °F 88% 30.53 in 10.0 mi Calm Calm - N/A   Clear
8:51 AM 27.0 °F - 24.1 °F 89% 30.53 in 10.0 mi Calm Calm - N/A   Clear
9:51 AM 33.1 °F - 27.0 °F 78% 30.53 in 10.0 mi Calm Calm - N/A   Clear
10:51 AM 39.9 °F 37.8 °F 25.0 °F 55% 30.49 in 10.0 mi NNE 3.5 mph - N/A   Clear
11:51 AM 44.1 °F 41.5 °F 27.0 °F 51% 30.46 in 10.0 mi NNW 4.6 mph - N/A   Clear
12:51 PM 48.0 °F - 26.1 °F 42% 30.40 in 10.0 mi NW 3.5 mph - N/A   Clear
1:51 PM 51.1 °F - 23.0 °F 33% 30.35 in 10.0 mi SSW 3.5 mph - N/A   Clear
2:51 PM 54.0 °F - 24.1 °F 31% 30.30 in 10.0 mi WNW 5.8 mph - N/A   Clear
3:51 PM 55.9 °F - 19.9 °F 25% 30.27 in 10.0 mi Calm Calm - N/A   Clear
4:51 PM 57.9 °F - 21.9 °F 25% 30.23 in 10.0 mi North 4.6 mph - N/A   Clear
5:51 PM 55.0 °F - 25.0 °F 31% 30.23 in 10.0 mi NNW 3.5 mph - N/A   Clear
6:51 PM 46.9 °F - 28.0 °F 48% 30.22 in 10.0 mi NNW 9.2 mph - N/A   Clear
7:51 PM 43.0 °F 38.8 °F 25.0 °F 49% 30.22 in 10.0 mi NNE 6.9 mph - N/A   Clear
8:51 PM 41.0 °F 37.1 °F 26.1 °F 55% 30.21 in 10.0 mi NE 5.8 mph - N/A   Clear
9:51 PM 39.0 °F 35.7 °F 27.0 °F 62% 30.17 in 10.0 mi SW 4.6 mph - N/A   Clear
10:51 PM 34.0 °F - 27.0 °F 75% 30.16 in 10.0 mi Calm Calm - N/A   Clear
11:51 PM 35.1 °F 32.2 °F 27.0 °F 72% 30.12 in 10.0 mi ESE 3.5 mph - N/A   Clear